Time,TemperatureF,DewpointF,PressureIn,WindDirection,WindDirectionDegrees,WindSpeedMPH,WindSpeedGustMPH,Humidity,HourlyPrecipIn,Conditions,Clouds,dailyrainin,SoftwareType,DateUTC
2013-05-23 00:00:00,60.0,54.0,-100.00,SW,230,2.0,14.0,82,-99.99,,,-99.99,,2013-05-23 05:00:00,
2013-05-23 00:02:00,60.0,55.0,-100.00,WSW,255,3.0,17.0,83,-99.99,,,-99.99,,2013-05-23 05:02:00,
2013-05-23 00:11:00,60.0,54.0,-100.00,WSW,245,5.0,18.0,82,-99.99,,,-99.99,,2013-05-23 05:11:00,
2013-05-23 00:22:00,60.0,54.0,-100.00,WSW,245,5.0,18.0,82,-99.99,,,-99.99,,2013-05-23 05:22:00,
2013-05-23 00:32:00,60.0,54.0,-100.00,SW,230,2.0,14.0,82,-99.99,,,-99.99,,2013-05-23 05:32:00,
2013-05-23 00:42:00,60.0,54.0,-100.00,SW,230,2.0,14.0,82,-99.99,,,-99.99,,2013-05-23 05:42:00,
2013-05-23 00:52:00,60.0,54.0,-100.00,SW,230,2.0,14.0,82,-99.99,,,-99.99,,2013-05-23 05:52:00,
2013-05-23 01:12:00,60.0,54.0,-100.00,WSW,240,8.0,14.0,82,-99.99,,,-99.99,,2013-05-23 06:12:00,
2013-05-23 01:21:00,60.0,54.0,-100.00,WSW,240,8.0,14.0,82,-99.99,,,-99.99,,2013-05-23 06:21:00,
2013-05-23 01:32:00,59.0,54.0,-100.00,WSW,250,4.0,19.0,85,-99.99,,,-99.99,,2013-05-23 06:32:00,
2013-05-23 01:42:00,58.0,55.0,-100.00,SW,215,3.0,17.0,90,-99.99,,,-99.99,,2013-05-23 06:42:00,
2013-05-23 01:52:00,58.0,55.0,-100.00,SW,215,3.0,17.0,90,-99.99,,,-99.99,,2013-05-23 06:52:00,
2013-05-23 02:02:00,57.0,55.0,-100.00,WSW,245,7.0,14.0,93,-99.99,,,-99.99,,2013-05-23 07:02:00,
2013-05-23 02:11:00,57.0,56.0,-100.00,SW,235,1.0,14.0,95,-99.99,,,-99.99,,2013-05-23 07:11:00,
2013-05-23 02:21:00,57.0,56.0,-100.00,SW,235,1.0,14.0,95,-99.99,,,-99.99,,2013-05-23 07:21:00,
2013-05-23 02:32:00,57.0,55.0,-100.00,WSW,240,4.0,14.0,95,-99.99,,,-99.99,,2013-05-23 07:32:00,
2013-05-23 02:42:00,57.0,55.0,-100.00,SW,220,2.0,9.0,95,-99.99,,,-99.99,,2013-05-23 07:42:00,
2013-05-23 02:59:00,57.0,55.0,-100.00,SW,220,2.0,9.0,95,-99.99,,,-99.99,,2013-05-23 07:59:00,
2013-05-23 03:11:00,57.0,56.0,-100.00,SW,235,1.0,14.0,96,-99.99,,,-99.99,,2013-05-23 08:11:00,
2013-05-23 03:22:00,57.0,56.0,-100.00,SW,235,1.0,14.0,96,-99.99,,,-99.99,,2013-05-23 08:22:00,
2013-05-23 03:31:00,57.0,56.0,-100.00,West,265,1.0,11.0,96,-99.99,,,-99.99,,2013-05-23 08:31:00,
2013-05-23 03:42:00,57.0,56.0,-100.00,West,260,3.0,10.0,95,-99.99,,,-99.99,,2013-05-23 08:42:00,
2013-05-23 03:52:00,57.0,56.0,-100.00,West,260,3.0,10.0,95,-99.99,,,-99.99,,2013-05-23 08:52:00,
2013-05-23 04:01:00,57.0,56.0,-100.00,WSW,240,1.0,8.0,96,-99.99,,,-99.99,,2013-05-23 09:01:00,
2013-05-23 04:11:00,57.0,56.0,-100.00,WSW,240,1.0,8.0,96,-99.99,,,-99.99,,2013-05-23 09:11:00,
2013-05-23 04:21:00,57.0,56.0,-100.00,WSW,255,2.0,11.0,95,-99.99,,,-99.99,,2013-05-23 09:21:00,
2013-05-23 04:33:00,57.0,56.0,-100.00,West,260,2.0,9.0,95,-99.99,,,-99.99,,2013-05-23 09:33:00,
2013-05-23 04:42:00,58.0,56.0,-100.00,West,280,1.0,11.0,94,-99.99,,,-99.99,,2013-05-23 09:42:00,
2013-05-23 04:53:00,58.0,56.0,-100.00,West,280,1.0,11.0,94,-99.99,,,-99.99,,2013-05-23 09:53:00,
2013-05-23 05:02:00,58.0,56.0,-100.00,WSW,240,1.0,9.0,94,-99.99,,,-99.99,,2013-05-23 10:02:00,
2013-05-23 05:12:00,58.0,56.0,-100.00,WSW,250,1.0,8.0,94,-99.99,,,-99.99,,2013-05-23 10:12:00,
2013-05-23 05:22:00,58.0,56.0,-100.00,WSW,250,1.0,8.0,94,-99.99,,,-99.99,,2013-05-23 10:22:00,
2013-05-23 05:32:00,58.0,57.0,-100.00,West,260,4.0,9.0,97,-99.99,,,-99.99,,2013-05-23 10:32:00,
2013-05-23 05:42:00,58.0,56.0,-100.00,NW,305,5.0,16.0,96,-99.99,,,-99.99,,2013-05-23 10:42:00,
2013-05-23 05:52:00,58.0,56.0,-100.00,NW,305,5.0,16.0,96,-99.99,,,-99.99,,2013-05-23 10:52:00,
2013-05-23 06:02:00,58.0,56.0,-100.00,NNW,335,9.0,22.0,95,-99.99,,,-99.99,,2013-05-23 11:02:00,
2013-05-23 06:11:00,57.0,55.0,-100.00,North,0,11.0,19.0,94,-99.99,,,-99.99,,2013-05-23 11:11:00,
2013-05-23 06:22:00,57.0,55.0,-100.00,North,0,11.0,19.0,94,-99.99,,,-99.99,,2013-05-23 11:22:00,
2013-05-23 06:32:00,57.0,55.0,-100.00,NNW,330,8.0,17.0,95,-99.99,,,-99.99,,2013-05-23 11:32:00,
2013-05-23 06:42:00,56.0,54.0,-100.00,North,0,7.0,22.0,93,-99.99,,,-99.99,,2013-05-23 11:42:00,
2013-05-23 06:52:00,56.0,54.0,-100.00,North,0,7.0,22.0,93,-99.99,,,-99.99,,2013-05-23 11:52:00,
2013-05-23 07:01:00,56.0,53.0,-100.00,North,0,14.0,26.0,92,-99.99,,,-99.99,,2013-05-23 12:01:00,
2013-05-23 07:11:00,56.0,55.0,-100.00,NNW,335,5.0,17.0,94,-99.99,,,-99.99,,2013-05-23 12:11:00,
2013-05-23 07:21:00,56.0,55.0,-100.00,NNW,335,5.0,17.0,94,-99.99,,,-99.99,,2013-05-23 12:21:00,
2013-05-23 07:32:00,56.0,54.0,-100.00,NW,310,9.0,17.0,94,-99.99,,,-99.99,,2013-05-23 12:32:00,
2013-05-23 07:42:00,56.0,54.0,-100.00,NW,315,4.0,14.0,95,-99.99,,,-99.99,,2013-05-23 12:42:00,
2013-05-23 07:52:00,56.0,54.0,-100.00,NW,315,4.0,14.0,95,-99.99,,,-99.99,,2013-05-23 12:52:00,
2013-05-23 08:01:00,55.0,54.0,-100.00,NW,310,6.0,14.0,95,-99.99,,,-99.99,,2013-05-23 13:01:00,
2013-05-23 08:11:00,56.0,54.0,-100.00,NW,325,6.0,17.0,95,-99.99,,,-99.99,,2013-05-23 13:11:00,
2013-05-23 08:22:00,56.0,54.0,-100.00,NW,325,6.0,17.0,95,-99.99,,,-99.99,,2013-05-23 13:22:00,
2013-05-23 08:32:00,56.0,54.0,-100.00,NW,320,4.0,19.0,94,-99.99,,,-99.99,,2013-05-23 13:32:00,
2013-05-23 08:42:00,56.0,54.0,-100.00,NW,320,6.0,12.0,92,-99.99,,,-99.99,,2013-05-23 13:42:00,
2013-05-23 08:52:00,56.0,54.0,-100.00,NW,320,6.0,12.0,92,-99.99,,,-99.99,,2013-05-23 13:52:00,
2013-05-23 09:02:00,56.0,53.0,-100.00,NW,315,9.0,19.0,92,-99.99,,,-99.99,,2013-05-23 14:02:00,
2013-05-23 09:11:00,56.0,54.0,-100.00,NW,320,6.0,16.0,91,-99.99,,,-99.99,,2013-05-23 14:11:00,
2013-05-23 09:21:00,56.0,54.0,-100.00,NW,320,6.0,16.0,91,-99.99,,,-99.99,,2013-05-23 14:21:00,
2013-05-23 09:32:00,56.0,53.0,-100.00,North,0,6.0,21.0,88,-99.99,,,-99.99,,2013-05-23 14:32:00,
2013-05-23 09:42:00,56.0,52.0,-100.00,North,0,11.0,19.0,88,-99.99,,,-99.99,,2013-05-23 14:42:00,
2013-05-23 09:52:00,56.0,52.0,-100.00,North,0,11.0,19.0,88,-99.99,,,-99.99,,2013-05-23 14:52:00,
2013-05-23 10:01:00,56.0,53.0,-100.00,NNW,335,9.0,20.0,88,-99.99,,,-99.99,,2013-05-23 15:01:00,
2013-05-23 10:11:00,56.0,51.0,-100.00,North,5,13.0,22.0,82,-99.99,,,-99.99,,2013-05-23 15:11:00,
2013-05-23 10:21:00,56.0,51.0,-100.00,North,5,13.0,22.0,82,-99.99,,,-99.99,,2013-05-23 15:21:00,
2013-05-23 10:33:00,57.0,51.0,-100.00,NNW,340,8.0,21.0,80,-99.99,,,-99.99,,2013-05-23 15:33:00,
2013-05-23 10:42:00,57.0,51.0,-100.00,North,0,11.0,27.0,80,-99.99,,,-99.99,,2013-05-23 15:42:00,
2013-05-23 10:53:00,57.0,51.0,-100.00,North,0,11.0,27.0,80,-99.99,,,-99.99,,2013-05-23 15:53:00,
2013-05-23 11:03:00,58.0,51.0,-100.00,NNW,345,8.0,18.0,75,-99.99,,,-99.99,,2013-05-23 16:03:00,
2013-05-23 11:12:00,59.0,51.0,-100.00,North,350,11.0,20.0,76,-99.99,,,-99.99,,2013-05-23 16:12:00,
2013-05-23 11:23:00,59.0,51.0,-100.00,North,350,11.0,20.0,76,-99.99,,,-99.99,,2013-05-23 16:23:00,
2013-05-23 11:33:00,59.0,49.0,-100.00,North,355,9.0,21.0,70,-99.99,,,-99.99,,2013-05-23 16:33:00,
2013-05-23 11:42:00,60.0,51.0,-100.00,NNW,345,11.0,26.0,72,-99.99,,,-99.99,,2013-05-23 16:42:00,
2013-05-23 11:52:00,60.0,51.0,-100.00,NNW,345,11.0,26.0,72,-99.99,,,-99.99,,2013-05-23 16:52:00,
2013-05-23 12:03:00,60.0,50.0,-100.00,North,355,10.0,21.0,69,-99.99,,,-99.99,,2013-05-23 17:03:00,
2013-05-23 12:11:00,60.0,51.0,-100.00,NNW,340,9.0,17.0,72,-99.99,,,-99.99,,2013-05-23 17:11:00,
2013-05-23 12:23:00,60.0,51.0,-100.00,NNW,340,9.0,17.0,72,-99.99,,,-99.99,,2013-05-23 17:23:00,
2013-05-23 12:33:00,62.0,50.0,-100.00,NW,325,8.0,25.0,66,-99.99,,,-99.99,,2013-05-23 17:33:00,
2013-05-23 12:43:00,61.0,50.0,-100.00,NNE,15,5.0,17.0,68,-99.99,,,-99.99,,2013-05-23 17:43:00,
2013-05-23 12:53:00,61.0,50.0,-100.00,NNE,15,5.0,17.0,68,-99.99,,,-99.99,,2013-05-23 17:53:00,
2013-05-23 13:01:00,61.0,50.0,-100.00,NNW,340,9.0,22.0,68,-99.99,,,-99.99,,2013-05-23 18:01:00,
2013-05-23 13:11:00,62.0,48.0,-100.00,NNW,335,9.0,18.0,62,-99.99,,,-99.99,,2013-05-23 18:11:00,
2013-05-23 13:22:00,62.0,48.0,-100.00,NNW,335,9.0,18.0,62,-99.99,,,-99.99,,2013-05-23 18:22:00,
2013-05-23 13:32:00,61.0,50.0,-100.00,NNW,340,4.0,15.0,67,-99.99,,,-99.99,,2013-05-23 18:32:00,
2013-05-23 13:42:00,62.0,50.0,-100.00,NW,325,6.0,15.0,64,-99.99,,,-99.99,,2013-05-23 18:42:00,
2013-05-23 13:52:00,62.0,50.0,-100.00,NW,325,6.0,15.0,64,-99.99,,,-99.99,,2013-05-23 18:52:00,
2013-05-23 14:01:00,62.0,51.0,-100.00,NW,320,6.0,19.0,68,-99.99,,,-99.99,,2013-05-23 19:01:00,
2013-05-23 14:11:00,62.0,49.0,-100.00,North,350,11.0,24.0,63,-99.99,,,-99.99,,2013-05-23 19:11:00,
2013-05-23 14:21:00,62.0,49.0,-100.00,North,350,11.0,24.0,63,-99.99,,,-99.99,,2013-05-23 19:21:00,
2013-05-23 14:32:00,63.0,49.0,-100.00,NW,325,8.0,19.0,60,-99.99,,,-99.99,,2013-05-23 19:32:00,
2013-05-23 14:42:00,65.0,47.0,-100.00,North,0,4.0,15.0,53,-99.99,,,-99.99,,2013-05-23 19:42:00,
2013-05-23 14:52:00,65.0,47.0,-100.00,North,0,4.0,15.0,53,-99.99,,,-99.99,,2013-05-23 19:52:00,
2013-05-23 15:02:00,65.0,47.0,-100.00,North,350,6.0,11.0,52,-99.99,,,-99.99,,2013-05-23 20:02:00,
2013-05-23 15:11:00,65.0,48.0,-100.00,NW,325,3.0,15.0,55,-99.99,,,-99.99,,2013-05-23 20:11:00,
2013-05-23 15:21:00,65.0,48.0,-100.00,NW,325,3.0,15.0,55,-99.99,,,-99.99,,2013-05-23 20:21:00,
2013-05-23 15:32:00,65.0,49.0,-100.00,North,0,4.0,14.0,56,-99.99,,,-99.99,,2013-05-23 20:32:00,
2013-05-23 15:42:00,65.0,48.0,-100.00,North,355,5.0,14.0,53,-99.99,,,-99.99,,2013-05-23 20:42:00,
2013-05-23 15:52:00,65.0,48.0,-100.00,North,355,5.0,14.0,53,-99.99,,,-99.99,,2013-05-23 20:52:00,
2013-05-23 16:01:00,65.0,48.0,-100.00,North,0,6.0,13.0,53,-99.99,,,-99.99,,2013-05-23 21:01:00,
2013-05-23 16:11:00,66.0,46.0,-100.00,North,350,2.0,11.0,49,-99.99,,,-99.99,,2013-05-23 21:11:00,
2013-05-23 16:21:00,66.0,46.0,-100.00,North,350,2.0,11.0,49,-99.99,,,-99.99,,2013-05-23 21:21:00,
2013-05-23 16:32:00,65.0,47.0,-100.00,NW,325,4.0,14.0,52,-99.99,,,-99.99,,2013-05-23 21:32:00,
2013-05-23 16:43:00,66.0,47.0,-100.00,North,0,5.0,12.0,51,-99.99,,,-99.99,,2013-05-23 21:43:00,
2013-05-23 16:53:00,66.0,47.0,-100.00,North,0,5.0,12.0,51,-99.99,,,-99.99,,2013-05-23 21:53:00,
2013-05-23 17:03:00,66.0,47.0,-100.00,North,0,7.0,14.0,50,-99.99,,,-99.99,,2013-05-23 22:03:00,
2013-05-23 17:12:00,66.0,44.0,-100.00,North,0,9.0,14.0,46,-99.99,,,-99.99,,2013-05-23 22:12:00,
2013-05-23 17:22:00,66.0,44.0,-100.00,North,0,9.0,14.0,46,-99.99,,,-99.99,,2013-05-23 22:22:00,
2013-05-23 17:33:00,66.0,44.0,-100.00,North,355,4.0,11.0,45,-99.99,,,-99.99,,2013-05-23 22:33:00,
2013-05-23 17:42:00,66.0,45.0,-100.00,NW,320,4.0,11.0,47,-99.99,,,-99.99,,2013-05-23 22:42:00,
2013-05-23 17:52:00,66.0,45.0,-100.00,NW,320,4.0,11.0,47,-99.99,,,-99.99,,2013-05-23 22:52:00,
2013-05-23 18:01:00,65.0,47.0,-100.00,NW,320,2.0,13.0,52,-99.99,,,-99.99,,2013-05-23 23:01:00,
2013-05-23 18:11:00,65.0,47.0,-100.00,NNW,345,3.0,12.0,51,-99.99,,,-99.99,,2013-05-23 23:11:00,
2013-05-23 18:21:00,65.0,47.0,-100.00,NNW,345,3.0,12.0,51,-99.99,,,-99.99,,2013-05-23 23:21:00,
2013-05-23 18:32:00,66.0,46.0,-100.00,NW,325,4.0,10.0,49,-99.99,,,-99.99,,2013-05-23 23:32:00,
2013-05-23 18:42:00,65.0,44.0,-100.00,North,0,4.0,14.0,46,-99.99,,,-99.99,,2013-05-23 23:42:00,
2013-05-23 18:52:00,65.0,44.0,-100.00,North,0,4.0,14.0,46,-99.99,,,-99.99,,2013-05-23 23:52:00,
2013-05-23 19:01:00,65.0,45.0,-100.00,NW,325,4.0,12.0,48,-99.99,,,-99.99,,2013-05-24 00:01:00,
2013-05-23 19:12:00,65.0,44.0,-100.00,North,0,4.0,13.0,46,-99.99,,,-99.99,,2013-05-24 00:12:00,
2013-05-23 19:21:00,65.0,44.0,-100.00,North,0,4.0,13.0,46,-99.99,,,-99.99,,2013-05-24 00:21:00,
2013-05-23 19:32:00,65.0,43.0,-100.00,North,355,4.0,10.0,45,-99.99,,,-99.99,,2013-05-24 00:32:00,
2013-05-23 19:42:00,65.0,45.0,-100.00,North,0,5.0,15.0,48,-99.99,,,-99.99,,2013-05-24 00:42:00,
2013-05-23 19:52:00,65.0,45.0,-100.00,North,0,5.0,15.0,48,-99.99,,,-99.99,,2013-05-24 00:52:00,
2013-05-23 20:01:00,64.0,45.0,-100.00,NW,320,2.0,10.0,50,-99.99,,,-99.99,,2013-05-24 01:01:00,
2013-05-23 20:12:00,64.0,47.0,-100.00,WNW,300,0.0,8.0,53,-99.99,,,-99.99,,2013-05-24 01:12:00,
2013-05-23 20:22:00,64.0,47.0,-100.00,WNW,300,0.0,8.0,53,-99.99,,,-99.99,,2013-05-24 01:22:00,
2013-05-23 20:32:00,64.0,45.0,-100.00,North,5,2.0,9.0,50,-99.99,,,-99.99,,2013-05-24 01:32:00,
2013-05-23 20:42:00,63.0,46.0,-100.00,NNW,340,0.0,6.0,53,-99.99,,,-99.99,,2013-05-24 01:42:00,
2013-05-23 20:52:00,63.0,46.0,-100.00,NNW,340,0.0,6.0,53,-99.99,,,-99.99,,2013-05-24 01:52:00,
2013-05-23 21:01:00,62.0,45.0,-100.00,North,0,1.0,7.0,54,-99.99,,,-99.99,,2013-05-24 02:01:00,
2013-05-23 21:11:00,60.0,46.0,-100.00,NNW,345,0.0,2.0,59,-99.99,,,-99.99,,2013-05-24 02:11:00,
2013-05-23 21:21:00,60.0,46.0,-100.00,NNW,345,0.0,2.0,59,-99.99,,,-99.99,,2013-05-24 02:21:00,
2013-05-23 21:32:00,59.0,46.0,-100.00,ENE,75,0.0,1.0,61,-99.99,,,-99.99,,2013-05-24 02:32:00,
2013-05-23 21:42:00,58.0,46.0,-100.00,North,5,0.0,2.0,64,-99.99,,,-99.99,,2013-05-24 02:42:00,
2013-05-23 21:52:00,58.0,46.0,-100.00,North,5,0.0,2.0,64,-99.99,,,-99.99,,2013-05-24 02:52:00,
2013-05-23 22:02:00,57.0,46.0,-100.00,NE,40,0.0,4.0,68,-99.99,,,-99.99,,2013-05-24 03:02:00,
2013-05-23 22:11:00,58.0,46.0,-100.00,ENE,60,0.0,0.0,66,-99.99,,,-99.99,,2013-05-24 03:11:00,
2013-05-23 22:22:00,58.0,46.0,-100.00,ENE,60,0.0,0.0,66,-99.99,,,-99.99,,2013-05-24 03:22:00,
2013-05-23 22:33:00,57.0,44.0,-100.00,East,100,0.0,0.0,62,-99.99,,,-99.99,,2013-05-24 03:33:00,
2013-05-23 22:42:00,57.0,43.0,-100.00,NE,55,0.0,0.0,58,-99.99,,,-99.99,,2013-05-24 03:42:00,
2013-05-23 22:53:00,57.0,43.0,-100.00,NE,55,0.0,0.0,58,-99.99,,,-99.99,,2013-05-24 03:53:00,
2013-05-23 23:03:00,57.0,42.0,-100.00,East,85,0.0,0.0,59,-99.99,,,-99.99,,2013-05-24 04:03:00,
2013-05-23 23:12:00,56.0,43.0,-100.00,ENE,70,0.0,2.0,61,-99.99,,,-99.99,,2013-05-24 04:12:00,
2013-05-23 23:22:00,56.0,43.0,-100.00,ENE,70,0.0,2.0,61,-99.99,,,-99.99,,2013-05-24 04:22:00,
2013-05-23 23:33:00,53.0,44.0,-100.00,North,0,0.0,0.0,70,-99.99,,,-99.99,,2013-05-24 04:33:00,
2013-05-23 23:42:00,52.0,45.0,-100.00,SE,130,0.0,0.0,75,-99.99,,,-99.99,,2013-05-24 04:42:00,
2013-05-23 23:53:00,52.0,45.0,-100.00,SE,130,0.0,0.0,75,-99.99,,,-99.99,,2013-05-24 04:53:00,